Meteo Giornale » Osservazioni meteo Svizzera » Emmen

ore: 22:20 - Osservazioni Meteo Emmen
Lat. 47° 6' N Lon. 8° 18' E Alt. 427 metri s.l.m.

coperto Europe/Zurich

17 °C

Coperto

Temp. 24 Ore

12 °C

19 °C

Nord

5.5 Km/h

Dew point 13 °C

Umidità 77 %

Visibilità  10 Km

Il sole sorge alle ore 06:30

Il sole tramonta alle ore 20:29

Data e Ora Cielo e Fenomeni T °C DP °C Um. % Pres. hPa Vis. km Vento km/h
Oggi h: 22:20 coperto Coperto 17 13 77 1025 10 N 5.5
Oggi h: 21:50 coperto Coperto 17 13 77 1025 10 N/NE 7.4
Oggi h: 21:20 coperto Coperto 18 13 72 1025 10 N 5.5
Oggi h: 20:50 coperto Coperto 18 13 72 1025 10 N/NE 7.4
Oggi h: 20:20 coperto Coperto 18 13 72 1025 10 NE 7.4
Oggi h: 19:50 coperto Coperto 18 13 72 1025 10 NE 11.1
Oggi h: 19:20 coperto Coperto 18 13 72 1025 10 NE 9.3
Oggi h: 18:50 coperto Coperto 19 13 68 1025 10 NE 13
Oggi h: 18:20 coperto Coperto 19 13 68 1025 10 NE 11.1
Oggi h: 17:50 coperto Coperto 19 13 68 1025 10 NE 13
Oggi h: 16:50 coperto Coperto 19 13 68 1025 10 NE 14.8
Oggi h: 16:20 coperto Coperto 19 13 68 1026 10 NE 13
Oggi h: 15:50 coperto Coperto 19 12 63 1026 10 NE 11.1
Oggi h: 15:20 coperto Coperto 19 13 68 1026 10 NE 13
Oggi h: 14:50 coperto Coperto 19 13 68 1026 10 NE 14.8
Oggi h: 14:20 coperto Coperto 18 12 67 1026 10 NE 16.7
Oggi h: 13:50 coperto Coperto 19 12 63 1026 10 N/NE 16.7
Oggi h: 13:20 molto_nuvoloso Molto Nuvoloso 19 13 68 1026 10 N/NE 14.8
Oggi h: 11:50 molto_nuvoloso Molto Nuvoloso 17 12 72 1027 10 NE 18.5
Oggi h: 11:20 molto_nuvoloso Molto Nuvoloso 16 11 72 1027 10 NE 13
Oggi h: 10:50 molto_nuvoloso Molto Nuvoloso 16 12 77 1027 10 N/NE 18.5
Oggi h: 10:20 molto_nuvoloso Molto Nuvoloso 15 11 76 1027 10 E/NE 13
Oggi h: 09:50 nuvoloso Nuvoloso 15 13 87 1028 10 NE 7.4
Oggi h: 08:50 molto_nuvoloso Molto Nuvoloso 14 12 87 1028 10 N 5.5
Oggi h: 08:20 molto_nuvoloso Molto Nuvoloso 13 12 93 1028 10 N 3.7
Oggi h: 07:50 molto_nuvoloso Molto Nuvoloso 13 11 87 1028 10 N 0
Oggi h: 07:20 molto_nuvoloso Molto Nuvoloso 12 12 100 1028 10 N 0
Oggi h: 06:50 coperto Coperto 12 12 100 1028 10 N 0
Oggi h: 06:20 molto_nuvoloso Molto Nuvoloso 12 12 100 1028 10 N 0
Oggi h: 05:50 molto_nuvoloso Molto Nuvoloso 12 12 100 1028 10 N 0
Oggi h: 04:50 nuvoloso Nuvoloso 12 12 100 1028 10 N 0
Oggi h: 04:20 molto_nuvoloso Molto Nuvoloso 13 12 93 1028 10 N 0
Oggi h: 03:50 coperto Coperto 13 12 93 1028 10 N 0
Oggi h: 03:20 coperto Coperto 13 12 93 1028 10 N 0
Oggi h: 02:20 coperto Coperto 13 13 100 1028 10 N 0
Oggi h: 01:50 coperto Coperto 13 12 93 1028 10 N 5.5
Oggi h: 01:20 coperto Coperto 13 12 93 1028 10 N 5.5
Oggi h: 00:50 coperto Coperto 13 13 100 1028 10 N 5.5
Oggi h: 00:20 coperto Coperto 13 12 93 1028 10 N 1.8
Ieri h: 23:50 molto_nuvoloso Molto Nuvoloso 13 12 93 1028 10 N 1.8
Ieri h: 23:20 coperto_pioggia Pioggia Debole 13 12 93 1028 10 N 1.8
Ieri h: 22:50 coperto_pioggia Pioggia Debole 13 12 93 1028 10 S 9.3